West Palm Beach, FL

1:07 PM EST on February 22, 2017 (GMT -0500)
Palm Beach International

Weather History for KPBI - August, 2013

Change the Weather History Date:

Thursday, August 1, 2013

  Actual Average Record
Temperature  
Mean Temperature 87 °F 83 °F  
Max Temperature 91 °F 91 °F 96 °F (1990)
Min Temperature 82 °F 76 °F 67 °F (1919)
Degree Days  
Heating Degree Days 0 0  
Month to date heating degree days 0 0  
Since 1 June heating degree days 0 0  
Since 1 July heating degree days 0 0  
Cooling Degree Days 22 18  
Month to date cooling degree days 22 18  
Year to date cooling degree days 2272 2166  
Since 1 June cooling degree days 1087 1057  
Growing Degree Days 36 (Base 50)    
Moisture  
Dew Point 71 °F    
Average Humidity 61    
Maximum Humidity 69    
Minimum Humidity 52    
Precipitation  
Precipitation 0.00 in 0.22 in 4.72 in (1915)
Month to date precipitation 0.00 0.22  
Year to date precipitation 43.52 32.99  
Snow  
Snow 0.00 in - - ()
Month to date snowfall 0.0  
Since 1 June snowfall 0.0  
Since 1 July snowfall 0.0  
Snow Depth 0.00 in    
Sea Level Pressure  
Sea Level Pressure 30.00 in    
Wind  
Wind Speed 10 mph (ESE)    
Max Wind Speed 21 mph    
Max Gust Speed 25 mph    
Visibility 10 miles    
Events      
T = Trace of Precipitation, MM = Missing Value Source: NWS Daily Summary

Daily Weather History Graph

Daily Weather History Graph

Search for Another Location

Airport or City:

Trip Planner

Search our weather history database for the weather conditions in past years. The results will help you decide how hot, cold, wet, or windy it might be!

Date:

Astronomy

Aug. 01, 2013 Rise Set
Actual Time 6:45 AM EDT 8:07 PM EDT
Civil Twilight 6:20 AM EDT 8:32 PM EDT
Nautical Twilight 5:50 AM EDT 9:02 PM EDT
Astronomical Twilight 5:19 AM EDT 9:33 PM EDT
Moon 2:22 AM EDT (8/1) 4:11 PM EDT (8/1)
Length of Visible Light 14h 12m
Length of Day
13h 22m
Waning Crescent, 23% of the Moon is Illuminated
Aug 1
Waning Crescent
Aug 6
New
Aug 14
First Quarter
Aug 20
Full
Aug 28
Last Quarter

Hourly Weather History & Observations

Time (EDT) Temp. Heat Index Dew Point Humidity Pressure Visibility Wind Dir Wind Speed Gust Speed Precip Events Conditions
12:53 AM 84.0 °F 88.4 °F 70.0 °F 63% 30.05 in 10.0 mi SE 9.2 mph - N/A   Scattered Clouds
1:53 AM 84.0 °F 89.0 °F 71.1 °F 65% 30.03 in 10.0 mi SE 8.1 mph - N/A   Scattered Clouds
2:53 AM 82.9 °F 87.5 °F 71.1 °F 67% 30.00 in 10.0 mi SE 6.9 mph - N/A   Scattered Clouds
3:53 AM 82.0 °F 86.3 °F 71.1 °F 69% 29.99 in 10.0 mi SE 4.6 mph - N/A   Mostly Cloudy
4:53 AM 82.0 °F 85.9 °F 70.0 °F 67% 29.97 in 10.0 mi ESE 6.9 mph - N/A   Scattered Clouds
5:53 AM 82.0 °F 85.9 °F 70.0 °F 67% 29.98 in 10.0 mi ESE 6.9 mph - N/A   Scattered Clouds
6:53 AM 82.9 °F 87.0 °F 70.0 °F 65% 29.99 in 10.0 mi ESE 10.4 mph - N/A   Mostly Cloudy
7:53 AM 84.0 °F 88.4 °F 70.0 °F 63% 30.00 in 10.0 mi ESE 9.2 mph - N/A   Scattered Clouds
8:53 AM 86.0 °F 90.7 °F 70.0 °F 59% 30.02 in 10.0 mi SE 10.4 mph - N/A   Scattered Clouds
9:53 AM 87.1 °F 92.8 °F 71.1 °F 59% 30.02 in 10.0 mi ESE 9.2 mph - N/A   Mostly Cloudy
10:53 AM 88.0 °F 93.8 °F 71.1 °F 57% 30.03 in 10.0 mi ESE 10.4 mph - N/A   Mostly Cloudy
11:53 AM 89.1 °F 94.1 °F 70.0 °F 53% 30.03 in 10.0 mi SE 10.4 mph - N/A   Mostly Cloudy
12:53 PM 90.0 °F 96.4 °F 71.1 °F 54% 30.02 in 10.0 mi East 9.2 mph - N/A   Mostly Cloudy
1:53 PM 89.1 °F 95.0 °F 71.1 °F 55% 30.01 in 10.0 mi East 12.7 mph - N/A   Mostly Cloudy
2:53 PM 89.1 °F 95.0 °F 71.1 °F 55% 29.99 in 10.0 mi East 12.7 mph 19.6 mph N/A   Mostly Cloudy
3:53 PM 90.0 °F 94.5 °F 69.1 °F 50% 29.98 in 10.0 mi ESE 15.0 mph - N/A   Scattered Clouds
4:53 PM 89.1 °F 95.0 °F 71.1 °F 55% 29.95 in 10.0 mi East 15.0 mph 25.3 mph N/A   Scattered Clouds
5:53 PM 87.1 °F 92.0 °F 70.0 °F 57% 29.96 in 10.0 mi East 13.8 mph - N/A   Scattered Clouds
6:53 PM 86.0 °F 90.7 °F 70.0 °F 59% 29.98 in 10.0 mi East 13.8 mph - N/A   Scattered Clouds
7:53 PM 84.9 °F 90.1 °F 71.1 °F 63% 29.98 in 10.0 mi East 8.1 mph - N/A   Scattered Clouds
8:53 PM 84.9 °F 90.7 °F 72.0 °F 65% 29.99 in 10.0 mi ENE 8.1 mph - N/A   Scattered Clouds
9:53 PM 82.0 °F 85.5 °F 69.1 °F 65% 30.00 in 10.0 mi East 6.9 mph - N/A   Partly Cloudy
10:53 PM 82.9 °F 88.0 °F 72.0 °F 69% 29.99 in 10.0 mi ESE 10.4 mph - N/A   Scattered Clouds
11:53 PM 82.0 °F 85.9 °F 70.0 °F 67% 29.99 in 10.0 mi ESE 11.5 mph - N/A   Scattered Clouds